Newport News, VA

6:00 AM EST on January 24, 2018 (GMT -0500)
Newport News-Williamsburg International

Weather History for KPHF - September, 2012

Change the Weather History Date:

Wednesday, September 26, 2012

  Actual Average Record
Temperature  
Mean Temperature 72 °F -  
Max Temperature 81 °F 80 °F 92 °F (1970)
Min Temperature 62 °F 61 °F 45 °F (1974)
Cooling Degree Days 6    
Growing Degree Days 22 (Base 50)    
Moisture  
Dew Point 59 °F    
Average Humidity 67    
Maximum Humidity 84    
Minimum Humidity 48    
Precipitation  
Precipitation 0.00 in - - ()
Sea Level Pressure  
Sea Level Pressure 30.17 in    
Wind  
Wind Speed 9 mph (SW)    
Max Wind Speed 15 mph    
Max Gust Speed 21 mph    
Visibility 10 miles    
Events      
Averages and records for this station are not official NWS values.
T = Trace of Precipitation, MM = Missing Value Source: NWS Daily Summary

Daily Weather History Graph

Daily Weather History Graph

Search for Another Location

Airport or City:

Trip Planner

Search our weather history database for the weather conditions in past years. The results will help you decide how hot, cold, wet, or windy it might be!

Date:

Astronomy

Sep. 26, 2012 Rise Set
Actual Time 6:57 AM EDT 6:56 PM EDT
Civil Twilight 6:31 AM EDT 7:21 PM EDT
Nautical Twilight 6:01 AM EDT 7:52 PM EDT
Astronomical Twilight 5:30 AM EDT 8:22 PM EDT
Moon 4:51 PM EDT (9/26) 3:25 AM EDT (9/26)
Length of Visible Light 12h 50m
Length of Day
11h 58m
Waxing Gibbous, 88% of the Moon is Illuminated
Sep 26
Waxing Gibbous
Sep 29
Full
Oct 8
Last Quarter
Oct 15
New
Oct 21
First Quarter

Hourly Weather History & Observations

Time (EDT) Temp. Heat Index Dew Point Humidity Pressure Visibility Wind Dir Wind Speed Gust Speed Precip Events Conditions
12:54 AM 64.4 °F - 53.6 °F 68% 30.20 in 10.0 mi South 4.6 mph - N/A   Clear
1:54 AM 62.1 °F - 55.0 °F 78% 30.19 in 10.0 mi SSW 6.9 mph - N/A   Clear
2:54 AM 62.1 °F - 55.9 °F 80% 30.19 in 10.0 mi SSW 6.9 mph - N/A   Clear
3:54 AM 64.4 °F - 57.2 °F 77% 30.17 in 10.0 mi SSW 11.5 mph - N/A   Clear
4:54 AM 64.0 °F - 59.0 °F 84% 30.17 in 10.0 mi SSW 10.4 mph - N/A   Clear
5:54 AM 63.0 °F - 57.9 °F 84% 30.17 in 10.0 mi SW 9.2 mph - N/A   Clear
6:54 AM 63.0 °F - 57.9 °F 84% 30.19 in 10.0 mi SW 9.2 mph - N/A   Clear
7:54 AM 64.0 °F - 57.9 °F 80% 30.20 in 10.0 mi SW 10.4 mph - N/A   Clear
8:54 AM 66.9 °F - 57.9 °F 73% 30.19 in 10.0 mi SW 12.7 mph - N/A   Clear
9:54 AM 71.1 °F - 57.9 °F 63% 30.21 in 10.0 mi SW 15.0 mph - N/A   Clear
10:54 AM 73.9 °F - 57.0 °F 55% 30.20 in 10.0 mi SW 12.7 mph - N/A   Clear
11:54 AM 75.9 °F - 55.9 °F 50% 30.19 in 10.0 mi SW 12.7 mph - N/A   Clear
12:54 PM 78.1 °F - 57.0 °F 48% 30.18 in 10.0 mi WSW 15.0 mph 20.7 mph N/A   Clear
1:54 PM 79.0 °F - 57.9 °F 48% 30.16 in 10.0 mi SW 12.7 mph - N/A   Clear
2:54 PM 80.1 °F 80.7 °F 59.0 °F 48% 30.14 in 10.0 mi SW 11.5 mph - N/A   Clear
3:54 PM 81.0 °F 81.6 °F 60.1 °F 49% 30.14 in 10.0 mi SW 8.1 mph - N/A   Clear
4:54 PM 80.1 °F 81.1 °F 61.0 °F 52% 30.13 in 10.0 mi SSW 9.2 mph - N/A   Clear
5:54 PM 79.0 °F - 61.0 °F 54% 30.14 in 10.0 mi SSW 9.2 mph 18.4 mph N/A   Clear
6:54 PM 73.9 °F - 62.1 °F 66% 30.15 in 10.0 mi SSW 8.1 mph - N/A   Clear
7:54 PM 73.0 °F - 62.1 °F 68% 30.15 in 10.0 mi SSW 8.1 mph - N/A   Clear
8:54 PM 73.0 °F - 62.1 °F 68% 30.16 in 10.0 mi SSW 8.1 mph - N/A   Clear
9:54 PM 71.1 °F - 62.1 °F 73% 30.17 in 10.0 mi SW 8.1 mph - N/A   Clear
10:54 PM 70.0 °F - 62.1 °F 76% 30.17 in 10.0 mi SW 8.1 mph - N/A   Clear
11:54 PM 68.0 °F - 60.8 °F 78% 30.17 in 10.0 mi SW 4.6 mph - N/A   Clear